Chatham, MA

12:57 AM EDT on July 21, 2017 (GMT -0400)
Chatham Municipal

Weather History for KCQX - November, 2012

Change the Weather History Date:

Wednesday, November 14, 2012

  Actual Average Record
Temperature  
Mean Temperature 45 °F -  
Max Temperature 46 °F 48 °F 66 °F (2005)
Min Temperature 44 °F 36 °F 28 °F (1996)
Degree Days  
Heating Degree Days 20    
Moisture  
Dew Point 36 °F    
Average Humidity 71    
Maximum Humidity 89    
Minimum Humidity 60    
Precipitation  
Precipitation 0.05 in - - ()
Sea Level Pressure  
Sea Level Pressure 30.43 in    
Wind  
Wind Speed 9 mph (NNE)    
Max Wind Speed 15 mph    
Max Gust Speed 25 mph    
Visibility 10 miles    
Events Rain    
Averages and records for this station are not official NWS values.
T = Trace of Precipitation, MM = Missing Value Source: NWS Daily Summary

Daily Weather History Graph

Daily Weather History Graph

Search for Another Location

Airport or City:

Trip Planner

Search our weather history database for the weather conditions in past years. The results will help you decide how hot, cold, wet, or windy it might be!

Date:

Astronomy

Nov. 14, 2012 Rise Set
Actual Time 6:28 AM EST 4:20 PM EST
Civil Twilight 5:58 AM EST 4:49 PM EST
Nautical Twilight 5:25 AM EST 5:23 PM EST
Astronomical Twilight 4:52 AM EST 5:56 PM EST
Moon 7:14 AM EST (11/14) 5:04 PM EST (11/14)
Length of Visible Light 10h 51m
Length of Day
9h 51m
New Moon, 1% of the Moon is Illuminated
Nov 14
New Moon
Nov 20
First Quarter
Nov 28
Full
Dec 6
Last Quarter
Dec 13
New

Hourly Weather History & Observations

Time (EST) Temp. Windchill Dew Point Humidity Pressure Visibility Wind Dir Wind Speed Gust Speed Precip Events Conditions
12:52 AM 44.1 °F 39.5 °F 41.0 °F 89% 30.38 in 10.0 mi North 8.1 mph - 0.02 in Rain Light Rain
1:06 AM 44.6 °F 42.2 °F 41.0 °F 87% 30.38 in 7.0 mi Variable 4.6 mph - 0.01 in Rain Light Rain
1:48 AM 44.6 °F 39.2 °F 41.0 °F 87% 30.38 in 10.0 mi NNE 10.4 mph 18.4 mph 0.03 in Rain Light Rain
1:52 AM 44.1 °F 38.6 °F 41.0 °F 89% 30.38 in 10.0 mi NNE 10.4 mph 18.4 mph 0.03 in Rain Light Rain
2:52 AM 44.1 °F 38.6 °F 41.0 °F 89% 30.39 in 10.0 mi NNE 10.4 mph 16.1 mph 0.00 in   Overcast
3:52 AM 44.1 °F 39.0 °F 41.0 °F 89% 30.39 in 10.0 mi NNE 9.2 mph 16.1 mph 0.00 in   Overcast
4:52 AM 45.0 °F 39.7 °F 37.0 °F 74% 30.41 in 10.0 mi NNE 10.4 mph 20.7 mph N/A   Overcast
5:52 AM 45.0 °F 40.6 °F 36.0 °F 71% 30.42 in 10.0 mi North 8.1 mph 19.6 mph N/A   Overcast
6:52 AM 44.1 °F 40.8 °F 35.1 °F 71% 30.45 in 10.0 mi Variable 5.8 mph - 0.00 in   Overcast
7:52 AM 44.1 °F 40.8 °F 35.1 °F 71% 30.46 in 10.0 mi Variable 5.8 mph - N/A   Overcast
8:52 AM 46.0 °F 41.4 °F 36.0 °F 68% 30.46 in 10.0 mi NNE 9.2 mph 18.4 mph N/A   Overcast
9:12 AM 46.4 °F 41.5 °F 37.4 °F 71% 30.45 in 10.0 mi North 10.4 mph 16.1 mph N/A   Overcast
9:52 AM 45.0 °F 40.6 °F 37.0 °F 74% 30.47 in 10.0 mi North 8.1 mph - N/A   Overcast
10:52 AM 45.0 °F 40.1 °F 36.0 °F 71% 30.46 in 10.0 mi North 9.2 mph - N/A   Overcast
11:31 AM 46.4 °F 41.1 °F 35.6 °F 66% 30.44 in 10.0 mi North 11.5 mph 18.4 mph N/A   Overcast
11:43 AM 46.4 °F 42.9 °F 35.6 °F 66% 30.43 in 10.0 mi Variable 6.9 mph 17.3 mph N/A   Overcast
11:52 AM 46.0 °F 41.0 °F 36.0 °F 68% 30.44 in 10.0 mi NNE 10.4 mph 21.9 mph N/A   Overcast
12:10 PM 46.4 °F 42.4 °F 35.6 °F 66% 30.43 in 10.0 mi North 8.1 mph 20.7 mph N/A   Overcast
12:52 PM 46.0 °F 40.2 °F 34.0 °F 63% 30.44 in 10.0 mi North 12.7 mph 25.3 mph N/A   Overcast
1:52 PM 45.0 °F 39.7 °F 33.1 °F 63% 30.43 in 10.0 mi North 10.4 mph 23.0 mph N/A   Mostly Cloudy
2:52 PM 45.0 °F 39.3 °F 33.1 °F 63% 30.43 in 10.0 mi North 11.5 mph 25.3 mph N/A   Overcast
3:52 PM 44.1 °F 38.6 °F 32.0 °F 63% 30.43 in 10.0 mi NNE 10.4 mph 21.9 mph N/A   Mostly Cloudy
4:52 PM 44.1 °F 37.1 °F 32.0 °F 63% 30.44 in 10.0 mi NNE 15.0 mph 25.3 mph N/A   Mostly Cloudy
5:52 PM 44.1 °F 37.7 °F 33.1 °F 65% 30.45 in 10.0 mi NNE 12.7 mph 21.9 mph N/A   Overcast
6:52 PM 45.0 °F 38.9 °F 33.1 °F 63% 30.45 in 10.0 mi NNE 12.7 mph 24.2 mph N/A   Mostly Cloudy
7:52 PM 45.0 °F 39.7 °F 32.0 °F 60% 30.45 in 10.0 mi NNE 10.4 mph 23.0 mph N/A   Overcast
8:52 PM 45.0 °F 39.7 °F 33.1 °F 63% 30.43 in 10.0 mi NNE 10.4 mph 21.9 mph N/A   Overcast
9:52 PM 45.0 °F 39.7 °F 34.0 °F 65% 30.43 in 10.0 mi NNE 10.4 mph 17.3 mph N/A   Overcast
10:52 PM 45.0 °F 40.6 °F 34.0 °F 65% 30.43 in 10.0 mi NNE 8.1 mph 17.3 mph N/A   Overcast
11:26 PM 44.6 °F 38.4 °F 33.8 °F 66% 30.41 in 10.0 mi NNE 12.7 mph 20.7 mph N/A   Overcast
11:52 PM 45.0 °F 38.2 °F 34.0 °F 65% 30.41 in 10.0 mi NE 15.0 mph 21.9 mph N/A   Overcast